Flag for Netherlands Weather past 2 weeks in Eindhoven, Netherlands

45 °F

Passing clouds.

Feels Like: 38 °F
Forecast: 45 / 53 °F
Wind: 13 mph from West

Location: Eindhoven Airport

Current Time: Nov 28, 2015 at 12:26:41 PM

Latest Report: Nov 28, 2015 at 11:55 AM

Visibility: N/A

Pressure: 29.92 "Hg

Humidity: 71%

Dew point: 36 °F

Location of EindhovenLocation

Historic Weather in Eindhoven — Graph


Eindhoven temperature yesterday

Maximum temperature yesterday: 43 °F (at 1:25 PM)
Minimum temperature yesterday: 32 °F (at 12:55 AM)
Average temperature yesterday: 38 °F

Past Weeks' High & Low Weather Summary

High61 °F (Nov 15, 10:25 AM)100% (Nov 14, 10:25 PM)30.27 "Hg (Nov 14, 10:25 PM)
Low28 °F (Nov 23, 8:55 AM)55% (Nov 13, 1:25 PM)29.36 "Hg (Nov 21, 10:57 AM)
Average46 °F86%29.87 "Hg
* Reported Nov 13 10:25 AM — Nov 28 10:55 AM, Eindhoven, Weather by CustomWeather, © 2015

Note: Actual official high and low records may vary slightly from our data, if they occured in-between our weather recording intervals... More about our weather records


Eindhoven weather history for previous 24 hours

Time TempWeatherWind HumidityBarometerVisibility
10:55 AM
Sat, Nov 28
43 °FPassing clouds.12 mph81%29.92 "HgN/A
10:25 AM43 °FQuite cool.10 mph76%29.92 "HgN/A
9:55 AM41 °FQuite cool.10 mph81%29.89 "HgN/A
9:25 AM41 °FQuite cool.9 mph81%29.89 "HgN/A
8:55 AM41 °FPassing clouds.10 mph81%29.89 "HgN/A
8:25 AM39 °FChilly.9 mph93%29.86 "HgN/A
7:55 AM41 °FPassing clouds.9 mph87%29.86 "HgN/A
7:25 AM41 °FPassing clouds.9 mph93%29.83 "HgN/A
6:59 AM43 °FPartly cloudy.8 mph93%29.80 "HgN/A
6:25 AM43 °FLight rain. Partly cloudy.8 mph93%29.80 "HgN/A
5:55 AM43 °FOvercast.10 mph93%29.77 "HgN/A
5:25 AM45 °FDrizzle. Mostly cloudy.15 mph87%29.74 "HgN/A
4:55 AM45 °FPassing clouds.16 mph93%29.71 "Hg3 mi
4:25 AM43 °FPassing clouds.14 mph100%29.68 "Hg3 mi
4:04 AM43 °FPartly cloudy.16 mph93%29.68 "Hg6 mi
3:25 AM41 °FPassing clouds.20 mph93%29.65 "Hg4 mi
3:04 AM41 °FDrizzle. Overcast.18 mph93%29.65 "HgN/A
2:55 AM41 °FDrizzle. Overcast.17 mph93%29.68 "Hg6 mi
2:25 AM41 °FLight rain. Overcast.16 mph93%29.68 "Hg4 mi
1:55 AM41 °FMostly cloudy.16 mph87%29.68 "HgN/A
12:55 AM39 °FPassing clouds.17 mph93%29.68 "Hg3 mi
12:25 AM39 °FOvercast.16 mph87%29.71 "HgN/A
11:55 PM
Fri, Nov 27
39 °FMostly cloudy.15 mph87%29.74 "HgN/A
10:59 PM39 °FPartly cloudy.16 mph87%29.74 "Hg3 mi
10:25 PM39 °FLow clouds.14 mph87%29.77 "HgN/A
9:55 PM39 °FMostly cloudy.14 mph87%29.77 "HgN/A
9:25 PM41 °FOvercast.9 mph81%29.80 "HgN/A
8:55 PM41 °FOvercast.13 mph81%29.80 "HgN/A
8:25 PM43 °FMostly cloudy.13 mph81%29.80 "HgN/A
7:55 PM43 °FMostly cloudy.12 mph81%29.83 "HgN/A
7:25 PM43 °FOvercast.12 mph81%29.83 "HgN/A
6:55 PM43 °FOvercast.12 mph81%29.83 "HgN/A
6:25 PM43 °FOvercast.10 mph81%29.86 "HgN/A
5:57 PM43 °FOvercast.12 mph87%29.86 "HgN/A
5:25 PM43 °FMostly cloudy.12 mph87%29.86 "HgN/A
4:55 PM43 °FMostly cloudy.12 mph81%29.89 "HgN/A
4:25 PM43 °FOvercast.12 mph81%29.89 "HgN/A
3:55 PM43 °FMore clouds than sun.10 mph87%29.89 "HgN/A
3:25 PM43 °FMore clouds than sun.10 mph87%29.92 "HgN/A
2:55 PM43 °FMore clouds than sun.12 mph87%29.92 "HgN/A
2:25 PM43 °FMore clouds than sun.13 mph81%29.92 "HgN/A
1:55 PM43 °FOvercast.12 mph87%29.95 "HgN/A
1:25 PM43 °FOvercast.12 mph81%29.95 "HgN/A
12:55 PM41 °FOvercast.12 mph87%29.98 "HgN/A
12:25 PM41 °FOvercast.12 mph87%29.98 "HgN/A
Weather by CustomWeather, © 2015

See weather overviewHow to use our weather pages